Weather History for Pullman, WA

Change the Weather History Date:

Friday, April 12, 2013

  Actual Average Record
Temperature  
Mean Temperature 42 °F 45 °F  
Max Temperature 54 °F 55 °F 74 °F (1951)
Min Temperature 30 °F 35 °F 21 °F (1997)
Degree Days  
Heating Degree Days 23 20  
Month to date heating degree days 221 250  
Since 1 July heating degree days 5377 5709  
Cooling Degree Days 0 0  
Month to date cooling degree days 0 0  
Year to date cooling degree days 0 0  
Moisture  
Dew Point 33 °F    
Average Humidity 64    
Maximum Humidity 93    
Minimum Humidity 35    
Precipitation  
Precipitation 0.42 in 0.04 in 1.14 in (1982)
Month to date precipitation 1.53 0.70  
Year to date precipitation 4.84 6.09  
Sea Level Pressure  
Sea Level Pressure 29.89 in    
Wind  
Wind Speed 8 mph (SSW)    
Max Wind Speed 28 mph    
Max Gust Speed 38 mph    
Visibility 8 miles    
Events Rain    
T = Trace of Precipitation, MM = Missing Value Source: NWS Daily Summary

Daily Weather History Graph

Daily Weather History Graph

Search for Another Location

Airport:

Trip Planner

Search our weather history database for the weather conditions in past years. The results will help you decide how hot, cold, wet, or windy it might be!

Date:

Astronomy

Apr. 12, 2013 Rise Set
Actual Time 6:06 AM PDT 7:33 PM PDT
Civil Twilight 5:34 AM PDT 8:04 PM PDT
Nautical Twilight 4:56 AM PDT 8:43 PM PDT
Astronomical Twilight 4:15 AM PDT 9:24 PM PDT
Moon 7:10 AM PDT (4/12) 10:17 PM PDT (4/12)
Length of Visible Light 14h 30m
Length of Day
13h 27m
Waxing Crescent, 6% of the Moon is Illuminated
Apr 12
Waxing Crescent
Apr 18
First Quarter
Apr 25
Full
May 2
Last Quarter
May 9
New

Hourly Weather History & Observations

Time (PDT) Temp. Windchill Dew Point Humidity Pressure Visibility Wind Dir Wind Speed Gust Speed Precip Events Conditions
12:53 AM 35.1 °F - 28.0 °F 76% 30.14 in 10.0 mi Calm Calm - N/A   Clear
1:53 AM 33.1 °F - 28.0 °F 82% 30.14 in 10.0 mi Calm Calm - N/A   Clear
2:53 AM 30.9 °F - 26.1 °F 82% 30.13 in 10.0 mi Calm Calm - N/A   Clear
3:53 AM 34.0 °F - 27.0 °F 75% 30.11 in 10.0 mi Calm Calm - N/A   Clear
4:53 AM 35.1 °F 31.0 °F 28.0 °F 76% 30.12 in 10.0 mi East 4.6 mph - N/A   Clear
5:53 AM 33.1 °F - 27.0 °F 78% 30.12 in 10.0 mi Calm Calm - N/A   Clear
6:53 AM 33.1 °F - 28.0 °F 82% 30.12 in 10.0 mi Calm Calm - N/A   Clear
7:53 AM 37.9 °F 34.4 °F 30.0 °F 73% 30.11 in 10.0 mi NE 4.6 mph - N/A   Clear
8:53 AM 43.0 °F 40.3 °F 32.0 °F 65% 30.09 in 10.0 mi SE 4.6 mph - N/A   Clear
9:53 AM 46.9 °F - 30.9 °F 54% 30.06 in 10.0 mi East 3.5 mph - N/A   Clear
10:53 AM 48.9 °F - 30.9 °F 50% 30.03 in 10.0 mi SSE 11.5 mph - N/A   Clear
11:53 AM 50.0 °F - 30.9 °F 48% 29.99 in 10.0 mi SE 12.7 mph 20.7 mph N/A   Clear
12:53 PM 53.1 °F - 32.0 °F 45% 29.94 in 10.0 mi SE 13.8 mph 20.7 mph N/A   Partly Cloudy
1:53 PM 54.0 °F - 28.9 °F 38% 29.89 in 10.0 mi SE 9.2 mph - N/A   Scattered Clouds
2:53 PM 53.1 °F - 27.0 °F 37% 29.88 in 10.0 mi SSE 6.9 mph - N/A   Mostly Cloudy
3:53 PM 53.1 °F - 28.9 °F 40% 29.83 in 10.0 mi SSW 4.6 mph - N/A   Mostly Cloudy
4:53 PM 52.0 °F - 32.0 °F 47% 29.81 in 10.0 mi SW 5.8 mph - N/A   Overcast
5:53 PM 51.1 °F - 30.9 °F 46% 29.79 in 10.0 mi SW 13.8 mph 24.2 mph 0.00 in Rain Light Rain
6:53 PM 45.0 °F 37.6 °F 37.0 °F 74% 29.79 in 5.0 mi WSW 17.3 mph 28.8 mph 0.01 in Rain Light Rain
7:53 PM 42.1 °F 34.9 °F 37.9 °F 85% 29.77 in 4.0 mi WSW 13.8 mph 19.6 mph 0.06 in Rain Rain
8:19 PM 41.0 °F 34.7 °F 37.4 °F 87% 29.72 in 4.0 mi West 10.4 mph 18.4 mph 0.05 in Rain Rain
8:26 PM 41.0 °F 34.3 °F 37.4 °F 87% 29.72 in 4.0 mi WSW 11.5 mph - 0.06 in Rain Rain
8:53 PM 41.0 °F 35.8 °F 37.9 °F 89% 29.74 in 4.0 mi WSW 8.1 mph - 0.10 in Rain Rain
9:53 PM 41.0 °F 36.4 °F 37.9 °F 89% 29.70 in 5.0 mi SW 6.9 mph - 0.12 in Rain Light Rain
10:38 PM 41.0 °F 37.1 °F 39.2 °F 93% 29.67 in 4.0 mi SW 5.8 mph - 0.07 in Rain Light Rain
10:53 PM 41.0 °F 35.8 °F 39.0 °F 93% 29.68 in 4.0 mi SW 8.1 mph - 0.10 in Rain Rain
11:00 PM 42.8 °F 37.0 °F 39.2 °F 87% 29.66 in 4.0 mi WSW 10.4 mph 17.3 mph 0.01 in Rain Light Rain
11:40 PM 41.0 °F 31.1 °F 37.4 °F 87% 29.65 in 7.0 mi SW 23.0 mph 33.4 mph 0.02 in Rain Light Rain
11:47 PM 41.0 °F 31.1 °F 37.4 °F 87% 29.64 in 6.0 mi WSW 23.0 mph 34.5 mph 0.03 in Rain Light Rain
11:53 PM 39.9 °F 29.5 °F 37.0 °F 89% 29.67 in 8.0 mi SW 24.2 mph 32.2 mph 0.03 in Rain Light Rain